Simultaneous Nadir Overpasses (SNOs) Predictions

Prediction of SNOs between LANDSAT-8 and NOAA-19 Satellite Orbit:

Table of predicted SNOs for the next 14.0 days since TLE Epoch: 6/8/2018
Index Date (LANDSAT-8) Time (LANDSAT-8) Lat,Lon (LANDSAT-8) SZA (LANDSAT-8 ) Date (NOAA-19) Time (NOAA-19) Lat,Lon (NOAA-19) SZA (NOAA-19 ) Distance(km) Time Diff (sec)
1 06/10/2018 09:23:06 -77.64,-126.94 125.04 06/10/2018 09:22:12 -77.64,-126.88 125.05 1.29 54
2 06/10/2018 10:12:33 77.59, 40.47 54.90 06/10/2018 10:13:07 77.61, 40.54 54.93 3.07 34
3 06/12/2018 14:56:51 77.64, -30.38 54.80 06/12/2018 14:55:43 77.65, -30.24 54.81 3.53 68
4 06/12/2018 15:46:19 -77.61, 137.14 125.23 06/12/2018 15:46:48 -77.64, 137.06 125.21 3.33 29
5 06/14/2018 20:30:37 -77.67, 66.30 125.29 06/14/2018 20:29:24 -77.68, 66.25 125.29 2.28 73
6 06/14/2018 21:20:03 77.65,-126.13 54.69 06/14/2018 21:20:19 77.65,-126.30 54.69 4.13 16
7 06/17/2018 02:53:50 -77.63, -29.64 125.42 06/17/2018 02:53:59 -77.65, -29.65 125.40 1.85 9
8 06/19/2018 08:27:34 77.66, 67.06 54.56 06/19/2018 08:27:30 77.65, 67.03 54.55 1.30 4
9 06/21/2018 14:01:21 -77.65, 163.55 125.48 06/21/2018 14:01:10 -77.68, 163.55 125.45 3.60 11




NCC Satellite Simultaneous Nadir Overpasses (SNOs) Prediction Service
